Regional Weather Roundup
Issued by NWS Albany, NY

Current Version | Previous Version | Text Only | Print | Product List | Glossary On
Versions: 1 2 3 4 5 6 7 8 9 10 11 12 13 14 15 16 17 18 19 20 21 22 23 24 25 26 27 28 29 30 31 32 33 34 35 36 37 38 39 40 41 42 43 44 45 46 47 48 49 50
000
ASUS41 KALY 160810
RWRALY

NEW YORK STATE HOURLY WEATHER ROUNDUP
NATIONAL WEATHER SERVICE ALBANY NY
400 AM EDT MON SEP 16 2019

NOTE: "FAIR" INDICATES FEW OR NO CLOUDS BELOW 12,000 FEET WITH NO
SIGNIFICANT WEATHER AND/OR NO OBSTRUCTIONS TO VISIBILITY.

NYZ032-033-038>043-046>054-057>066-NYZ062>081-082-084-160900-
EAST


CITY           SKY/WX    TMP DP  RH WIND       PRES   REMARKS
ALBANY         CLOUDY    62  57  83 N7        30.08S
GLENS FALLS    FAIR      52  49  89 CALM      30.10R
POUGHKEEPSIE   FAIR      60  58  92 CALM      30.05S
NEWBURGH       MOCLDY    63  61  94 CALM      30.07S
MONTGOMERY     MOCLDY    59  58  96 CALM      30.06R
WHITE PLAINS   FAIR      64  60  87 NW5       30.05F
ISLIP          FAIR      65  63  93 SW5       30.04S
NEW YORK CITY  MOCLDY    74  58  57 CALM      30.04S
CENTRAL PARK   CLOUDY    72  57  59 CALM      30.08S
$$

NYZ005>009-017-018-044>046-055-056-160900-
CENTRAL


CITY           SKY/WX    TMP DP  RH WIND       PRES   REMARKS
FULTON         CLOUDY    60  56  86 CALM      30.11R
SYRACUSE       CLOUDY    61  57  87 NE3       30.11S
ROME           CLOUDY    59  55  87 CALM      30.13S
ELMIRA         CLOUDY    64  63  96 CALM      30.09S
BINGHAMTON     LGT RAIN  60  60 100 SW3       30.11S FOG
MONTICELLO     CLOUDY    59  57  93 W5        30.11S
$$

NYZ026>034-041>043-087-160900-
NORTH


CITY           SKY/WX    TMP DP  RH WIND       PRES   REMARKS
WATERTOWN      FOG       45  44  97 E3        30.12R VSB 1/2
FORT DRUM      NOT AVBL
OGDENSBURG     FAIR      43  43 100 CALM      30.10S
MASSENA        FAIR      42  41  96 CALM      30.13S FOG
SARANAC LAKE   FAIR      37  35  92 CALM      30.11R
PLATTSBURGH    FAIR      50  45  83 NW5       30.10R
$$

NYZ001>004-010>016-019>021-085-160900-
WEST


CITY           SKY/WX    TMP DP  RH WIND       PRES   REMARKS
NIAGARA FALLS  CLOUDY    60  59  96 E6        30.07F
BUFFALO        LGT RAIN  62  60  93 N6        30.07S FOG
DUNKIRK        CLOUDY    63  62  97 CALM      30.06F
JAMESTOWN      CLOUDY    60  59  96 CALM      30.11S
WELLSVILLE     CLOUDY    60  58  92 W5        30.12F
ROCHESTER      CLOUDY    61  58  90 E7        30.10S
PENN YAN       LGT RAIN  61  61 100 NW5       30.11S FOG
$$

             KEY
       WCI = WIND CHILL INDEX
       VSB = VISIBILITY
       HX  = HEAT INDEX
$$



USA.gov is the U.S. government's official web portal to all federal, state and local government web resources and services.